TimePDT,TemperatureF,Dew PointF,Humidity,Sea Level PressureIn,VisibilityMPH,Wind Direction,Wind SpeedMPH,Gust SpeedMPH,PrecipitationIn,Events,Conditions,WindDirDegrees,DateUTC
12:52 AM,57.9,48.0,70,29.86,-9999.0,NE,5.8,-,N/A,,Unknown,40,2011-10-01 07:52:00
1:52 AM,57.0,46.9,69,29.87,-9999.0,ENE,6.9,-,N/A,,Unknown,60,2011-10-01 08:52:00
2:52 AM,57.0,46.0,67,29.86,-9999.0,NE,5.8,-,N/A,,Unknown,40,2011-10-01 09:52:00
3:52 AM,57.9,44.1,60,29.86,-9999.0,Calm,Calm,-,N/A,,Unknown,0,2011-10-01 10:52:00
4:52 AM,55.9,44.1,64,29.87,-9999.0,ENE,6.9,-,N/A,,Unknown,60,2011-10-01 11:52:00
5:52 AM,55.9,45.0,67,29.88,-9999.0,NE,6.9,-,N/A,,Unknown,50,2011-10-01 12:52:00
6:52 AM,55.0,42.1,62,29.90,-9999.0,Calm,Calm,-,N/A,,Unknown,0,2011-10-01 13:52:00
7:52 AM,63.0,46.9,56,29.91,-9999.0,NE,3.5,-,N/A,,Unknown,50,2011-10-01 14:52:00
8:52 AM,73.9,48.0,40,29.90,-9999.0,Calm,Calm,-,N/A,,Unknown,0,2011-10-01 15:52:00
9:52 AM,86.0,44.1,23,29.89,-9999.0,East,13.8,17.3,N/A,,Unknown,80,2011-10-01 16:52:00
10:08 AM,86.0,42.8,22,29.99,-9999.0,East,13.8,-,N/A,,Unknown,80,2011-10-01 17:08:00
10:52 AM,88.0,44.1,22,29.89,-9999.0,ENE,11.5,19.6,N/A,,Unknown,60,2011-10-01 17:52:00
11:52 AM,89.1,42.1,19,29.88,-9999.0,East,11.5,-,N/A,,Unknown,80,2011-10-01 18:52:00
12:52 PM,90.0,42.1,19,29.86,-9999.0,East,8.1,-,N/A,,Unknown,80,2011-10-01 19:52:00
1:52 PM,87.1,43.0,21,29.85,-9999.0,NNE,8.1,-,N/A,,Unknown,30,2011-10-01 20:52:00
2:52 PM,90.0,45.0,21,29.83,-9999.0,WSW,15.0,-,N/A,,Unknown,250,2011-10-01 21:52:00
3:52 PM,90.0,45.0,21,29.84,-9999.0,West,10.4,23.0,N/A,,Unknown,280,2011-10-01 22:52:00
4:20 PM,84.2,46.4,27,29.95,-9999.0,South,13.8,-,N/A,,Unknown,170,2011-10-01 23:20:00
4:52 PM,86.0,46.9,26,29.86,-9999.0,WSW,4.6,-,N/A,,Unknown,250,2011-10-01 23:52:00
5:52 PM,82.9,43.0,24,29.86,-9999.0,WNW,9.2,-,N/A,,Unknown,300,2011-10-02 00:52:00
6:52 PM,77.0,43.0,30,29.88,-9999.0,Calm,Calm,-,N/A,,Unknown,0,2011-10-02 01:52:00
7:52 PM,70.0,43.0,38,29.90,-9999.0,Calm,Calm,-,N/A,,Unknown,0,2011-10-02 02:52:00
8:52 PM,64.0,43.0,46,29.91,-9999.0,ENE,5.8,-,N/A,,Unknown,70,2011-10-02 03:52:00
9:52 PM,63.0,43.0,48,29.91,-9999.0,ENE,5.8,-,N/A,,Unknown,60,2011-10-02 04:52:00
10:52 PM,62.1,44.1,52,29.91,-9999.0,NNW,3.5,-,N/A,,Unknown,340,2011-10-02 05:52:00
11:52 PM,59.0,44.1,58,29.91,-9999.0,NE,4.6,-,N/A,,Unknown,40,2011-10-02 06:52:00